Showing default

CHINASAT 1A, 37804

Orbit data source: Space-Track

CHINASAT 1A, 37804 is a payload satellite owned by PLA GAD (CN) in GEO that was launched on Sat, 17 Sep 2011 UTC via a CHANG ZHENG 3B launch vehicle from the Xichang Space Center, China (XSC). Payload-class satellites include a variety of spacecraft equipped with specific instruments for various scientific and technological missions. These include communications satellites like Starlink; space stations such as the ISS; scientific satellites like the Hubble; Earth observation satellites from companies like Planet Labs, Umbra, and HawkEye 360; GPS; miniature CubeSats for education and research; and military/defense satellites.

Not visible in the next 10 days
Identifier
37804, 2011-047A
Orbit
GEO
Country
Flag of CNCN / PRC
Related business
Manufacturer
CAST
Mission
Non-operational Defense Communications
Bus & Motor
DFH-4, FY
Mass
5,320 kg wet, ~2,500 kg dry
Launch date (UTC)
2011-09-17 (14 years ago)
Launch vehicle
CHANG ZHENG 3B
Launch site
Xichang Space Center, China (XSC)
Object type
Payload
Rocket body
Debris
Shape & HBR
Box + 2 Pan, 7.8 m
Radar Cross Section
19.960 m², Large (>1 m²)

Expand to show TLE details & history
Last TLE update: 7 hours ago

TLE from 7 hours ago
0 CHINASAT 1A
1 37804U 11047A   25311.24026978 -.00000249  00000-0  00000-0 0  9991
2 37804   3.1438  81.1715 0002438 184.1352 193.5367  1.00044444 25111
Epoch: 2025-11-07T05:45Z
TLE epoch observation values (Epoch: 2025-11-07T05:45:59.308Z)
Latitude
0.95502°
Longitude
-34.4031°
Altitude
35,859.834 km
Speed
3.072 km/s
True Right ascension
06h 35m 07s
True Declination
0° 57' 15"
Sunlit
Object was in daylight at epoch
Visualization orbit readout
Latitude
Unknown
Longitude
Unknown
Altitude
Unknown
Speed
Unknown
Apparent Right ascension
Unknown
Apparent Declination
Unknown
Sunlit
N/A
Visualization observer readout
Local Sidereal Time
08:24:20
Azimuth
Unknown
Elevation
Unknown
Doppler factor
Unknown
Orbital elements
Apogee altitude
35,861.807 km
Perigee altitude
35,841.216 km
Semi-major axis
42,229.649 km
Eccentricity
0.00024
Inclination
3.1438°
RAAN
81.1715°
Arg. of periapsis
184.1352°
True anomaly
193.53016°
Mean anomaly
193.5367°
Eccentric anomaly
193.53343°
Mean motion
0.2501 °/min
Orbital period
1,439.41 mins
BSTAR
0
Loading maneuver chart data...
Computing Atmospheric mass density...
Loading historical data...
Loading historical data...
Loading historical data...
Loading historical data...
Loading historical data...
Loading historical data...
Loading historical data...
Other satellites on launch #47 in the year 2011 (2011-09-17 UTC)

Documentation

Showing up to 5 results
|